Flag for Poland Weather past 2 weeks in Dąbrowa Górnicza, Poland

Now
46 °F

Light rain. Fog.


Feels Like: 42 °F
Forecast: 34 / 42 °F
Wind: 9 mph from Northeast

Location: Katowice Airport

Current Time: Oct 23, 2014 at 4:02:22 AM

Latest Report: Oct 23, 2014 at 3:00 AM


Visibility: 3 mi

Pressure: 29.68 "Hg

Humidity: 100%

Dew point: 46 °F

Location of Dąbrowa GórniczaLocation

Historic Weather in Dąbrowa Górnicza — Graph

°F

Dąbrowa Górnicza temperature yesterday

Maximum temperature yesterday: 54 °F (at 12:00 AM)
Minimum temperature yesterday: 43 °F (at 2:30 PM)
Average temperature yesterday: 46 °F

Past Weeks' High & Low Weather Summary

 TemperatureHumidityPressure
High75 °F (Oct 11, 3:00 PM)100% (Oct 10, 9:00 PM)30.33 "Hg (Oct 10, 9:00 PM)
Low39 °F (Oct 15, 7:00 AM)50% (Oct 9, 1:30 PM)29.53 "Hg (Oct 22, 3:00 AM)
Average56 °F86%29.92 "Hg
* Reported Oct 8 3:00 AM — Oct 23 3:00 AM, Dąbrowa Górnicza, Weather by CustomWeather, © 2014

Note: Actual official high and low records may vary slightly from our data, if they occured in-between our weather recording intervals... More about our weather records

Advertising

Dąbrowa Górnicza weather history for previous 24 hours

 ConditionsComfort  
Time TempWeatherWind HumidityBarometerVisibility
3:00 AM
Oct 23
46 °FLight rain. Fog.9 mph100%29.68 "Hg3 mi
2:30 AM46 °FLight rain. Fog.7 mph100%29.65 "Hg3 mi
2:00 AM45 °FLight rain. Partly cloudy.5 mph100%29.65 "Hg4 mi
1:30 AM45 °FRain. Partly cloudy.2 mph93%29.65 "Hg4 mi
1:00 AM43 °FLight rain. Partly cloudy.5 mph100%29.65 "Hg4 mi
12:30 AM43 °FRain. Fog.6 mph100%29.65 "Hg3 mi
12:00 AM43 °FLight rain. Partly cloudy.8 mph100%29.65 "Hg4 mi
11:30 PM
Oct 22
43 °FRain. Fog.7 mph100%29.62 "Hg3 mi
11:00 PM43 °FLight rain. Passing clouds.8 mph100%29.62 "Hg4 mi
10:30 PM43 °FLight rain. Partly cloudy.9 mph100%29.62 "Hg5 mi
10:00 PM43 °FLight rain. Partly cloudy.9 mph100%29.62 "Hg4 mi
9:30 PM43 °FLight rain. Partly cloudy.8 mph100%29.62 "Hg5 mi
9:00 PM43 °FLight rain. Partly cloudy.8 mph100%29.62 "Hg4 mi
8:30 PM43 °FLight rain. Partly cloudy.8 mph93%29.62 "Hg5 mi
8:00 PM43 °FLight rain. Partly cloudy.8 mph93%29.62 "Hg5 mi
7:30 PM43 °FLight rain. Partly cloudy.8 mph93%29.62 "Hg4 mi
7:00 PM43 °FLight rain. Passing clouds.8 mph100%29.65 "Hg4 mi
6:30 PM43 °FLight rain. Partly sunny.8 mph93%29.65 "Hg4 mi
6:00 PM43 °FLight rain. Partly sunny.8 mph93%29.65 "Hg4 mi
5:30 PM43 °FLight rain. Partly sunny.8 mph93%29.62 "Hg5 mi
5:00 PM43 °FLight rain. Broken clouds.9 mph93%29.62 "HgN/A
4:30 PM43 °FLight rain. Broken clouds.12 mph93%29.62 "HgN/A
4:00 PM43 °FLight rain. Broken clouds.12 mph93%29.62 "HgN/A
3:30 PM43 °FLight rain. Partly sunny.10 mph93%29.62 "HgN/A
3:00 PM43 °FLight rain. Partly sunny.13 mph93%29.62 "HgN/A
2:30 PM43 °FLight rain. Partly sunny.13 mph93%29.62 "HgN/A
2:00 PM45 °FLight rain. Partly sunny.13 mph93%29.62 "HgN/A
1:30 PM45 °FLight rain. Partly sunny.12 mph93%29.62 "Hg5 mi
1:00 PM45 °FRain. Partly sunny.9 mph93%29.62 "Hg4 mi
12:30 PM45 °FLight rain. Partly sunny.14 mph93%29.62 "Hg5 mi
12:00 PM45 °FLight rain. Broken clouds.14 mph93%29.62 "Hg5 mi
11:30 AM45 °FLight rain. Broken clouds.12 mph100%29.62 "Hg5 mi
11:00 AM45 °FLight rain. Broken clouds.13 mph100%29.59 "Hg4 mi
10:30 AM45 °FLight rain. Broken clouds.12 mph100%29.62 "Hg4 mi
10:00 AM46 °FLight rain. Broken clouds.12 mph93%29.62 "Hg4 mi
9:30 AM46 °FLight rain. Broken clouds.16 mph93%29.62 "HgN/A
9:00 AM46 °FBroken clouds.15 mph93%29.59 "HgN/A
8:30 AM46 °FLight rain. Broken clouds.12 mph100%29.59 "HgN/A
8:00 AM46 °FLight rain. Partly cloudy.10 mph100%29.59 "HgN/A
7:30 AM46 °FLight rain. Partly cloudy.9 mph100%29.59 "HgN/A
7:00 AM48 °FSprinkles. Partly cloudy.16 mph94%29.56 "HgN/A
6:30 AM48 °FSprinkles. Passing clouds.18 mph94%29.56 "Hg4 mi
6:00 AM50 °FRain showers. Passing clouds.15 mph94%29.56 "Hg4 mi
5:30 AM50 °FLight rain. Passing clouds.No wind94%29.53 "HgN/A
5:00 AM52 °FLight rain. Passing clouds.5 mph82%29.53 "HgN/A
4:30 AM52 °FPassing clouds.6 mph82%29.53 "HgN/A
4:00 AM52 °FPassing clouds.6 mph82%29.53 "HgN/A
Weather by CustomWeather, © 2014

See weather overviewHow to use our weather pages